Ironwood, MI

12:08 PM CDT on September 24, 2017 (GMT -0500)
Gogebic-Iron County

Weather History for KIWD - March, 2013

Change the Weather History Date:

Friday, March 29, 2013

  Actual Average Record
Temperature  
Mean Temperature 30 °F -  
Max Temperature 48 °F 39 °F 62 °F (2005)
Min Temperature 12 °F 22 °F 8 °F (2011)
Degree Days  
Heating Degree Days 35    
Moisture  
Dew Point 16 °F    
Average Humidity 50    
Maximum Humidity 85    
Minimum Humidity 27    
Precipitation  
Precipitation 0.00 in - - ()
Sea Level Pressure  
Sea Level Pressure 30.17 in    
Wind  
Wind Speed 3 mph (SW)    
Max Wind Speed 12 mph    
Max Gust Speed -    
Visibility 10 miles    
Events      
Averages and records for this station are not official NWS values.
T = Trace of Precipitation, MM = Missing Value Source: NWS Daily Summary

Daily Weather History Graph

Daily Weather History Graph

Search for Another Location

Airport or City:

Trip Planner

Search our weather history database for the weather conditions in past years. The results will help you decide how hot, cold, wet, or windy it might be!

Date:

Astronomy

Mar. 29, 2013 Rise Set
Actual Time 6:45 AM CDT 7:25 PM CDT
Civil Twilight 6:14 AM CDT 7:56 PM CDT
Nautical Twilight 5:38 AM CDT 8:32 PM CDT
Astronomical Twilight 5:01 AM CDT 9:10 PM CDT
Moon 10:38 PM CDT (3/29) 7:43 AM CDT (3/29)
Length of Visible Light 13h 41m
Length of Day
12h 40m
Waning Gibbous, 93% of the Moon is Illuminated
Mar 29
Waning Gibbous
Apr 2
Last Quarter
Apr 10
New
Apr 18
First Quarter
Apr 25
Full

Hourly Weather History & Observations

Time (CDT) Temp. Windchill Dew Point Humidity Pressure Visibility Wind Dir Wind Speed Gust Speed Precip Events Conditions
12:15 AM 21.2 °F - 14.0 °F 74% 30.25 in 10.0 mi Calm Calm - N/A   Clear
3:15 AM 15.8 °F 10.2 °F 10.4 °F 79% 30.25 in 10.0 mi NE 3.5 mph - N/A   Clear
3:35 AM 15.8 °F 10.2 °F 8.6 °F 73% 30.25 in 10.0 mi West 3.5 mph - N/A   Clear
3:55 AM 17.6 °F - 10.4 °F 73% 30.25 in 10.0 mi Calm Calm - N/A   Clear
4:15 AM 17.6 °F - 8.6 °F 68% 30.25 in 10.0 mi Calm Calm - N/A   Clear
4:35 AM 15.8 °F - 8.6 °F 73% 30.25 in 10.0 mi Calm Calm - N/A   Clear
4:55 AM 15.8 °F - 10.4 °F 79% 30.25 in 10.0 mi Calm Calm - N/A   Clear
5:15 AM 15.8 °F - 10.4 °F 79% 30.25 in 10.0 mi Calm Calm - N/A   Clear
5:35 AM 14.0 °F - 8.6 °F 79% 30.25 in 10.0 mi Calm Calm - N/A   Clear
5:55 AM 14.0 °F - 8.6 °F 79% 30.25 in 10.0 mi Calm Calm - N/A   Clear
6:15 AM 14.0 °F - 8.6 °F 79% 30.25 in 10.0 mi Calm Calm - N/A   Clear
6:35 AM 12.2 °F - 6.8 °F 79% 30.25 in 10.0 mi Calm Calm - N/A   Clear
6:55 AM 12.2 °F - 6.8 °F 79% 30.25 in 10.0 mi Calm Calm - N/A   Clear
7:15 AM 14.0 °F - 6.8 °F 73% 30.25 in 10.0 mi Calm Calm - N/A   Clear
7:35 AM 12.2 °F - 8.6 °F 85% 30.25 in 10.0 mi Calm Calm - N/A   Clear
7:55 AM 15.8 °F - 10.4 °F 79% 30.25 in 10.0 mi Calm Calm - N/A   Clear
8:15 AM 17.6 °F - 10.4 °F 73% 30.25 in 10.0 mi Calm Calm - N/A   Clear
8:35 AM 21.2 °F - 12.2 °F 68% 30.25 in 10.0 mi Calm Calm - N/A   Clear
9:15 AM 28.4 °F 24.6 °F 15.8 °F 59% 30.25 in 10.0 mi WSW 3.5 mph - N/A   Clear
12:15 PM 44.6 °F 43.1 °F 15.8 °F 31% 30.21 in 10.0 mi WNW 3.5 mph - N/A   Clear
12:35 PM 44.6 °F 43.1 °F 17.6 °F 34% 30.21 in 10.0 mi West 3.5 mph - N/A   Clear
12:55 PM 46.4 °F - 17.6 °F 32% 30.20 in 10.0 mi Calm Calm - N/A   Clear
1:15 PM 46.4 °F - 15.8 °F 29% 30.20 in 10.0 mi Calm Calm - N/A   Clear
1:35 PM 46.4 °F - 15.8 °F 29% 30.19 in 10.0 mi Calm Calm - N/A   Clear
1:55 PM 48.2 °F - 15.8 °F 27% 30.18 in 10.0 mi Calm Calm - N/A   Clear
2:15 PM 46.4 °F - 15.8 °F 29% 30.17 in 10.0 mi Calm Calm - N/A   Clear
2:35 PM 46.4 °F 44.3 °F 17.6 °F 32% 30.16 in 10.0 mi SW 4.6 mph - N/A   Partly Cloudy
2:55 PM 46.4 °F 42.9 °F 17.6 °F 32% 30.15 in 10.0 mi WSW 6.9 mph - N/A   Clear
3:15 PM 48.2 °F - 17.6 °F 30% 30.15 in 10.0 mi WSW 6.9 mph - N/A   Clear
3:35 PM 48.2 °F - 19.4 °F 32% 30.14 in 10.0 mi SW 8.1 mph - N/A   Clear
3:55 PM 48.2 °F - 19.4 °F 32% 30.13 in 10.0 mi West 6.9 mph - N/A   Clear
4:15 PM 48.2 °F - 19.4 °F 32% 30.12 in 10.0 mi NW 4.6 mph - N/A   Clear
4:35 PM 48.2 °F - 21.2 °F 34% 30.12 in 10.0 mi SW 11.5 mph - N/A   Clear
4:55 PM 48.2 °F - 21.2 °F 34% 30.12 in 10.0 mi West 9.2 mph - N/A   Clear
5:15 PM 48.2 °F - 19.4 °F 32% 30.12 in 10.0 mi WSW 4.6 mph - N/A   Clear
5:35 PM 46.4 °F 42.4 °F 21.2 °F 37% 30.12 in 10.0 mi West 8.1 mph - N/A   Clear
5:55 PM 48.2 °F - 21.2 °F 34% 30.11 in 10.0 mi SW 8.1 mph - N/A   Clear
6:15 PM 48.2 °F - 21.2 °F 34% 30.11 in 10.0 mi SSW 9.2 mph - N/A   Clear
6:35 PM 46.4 °F 41.9 °F 21.2 °F 37% 30.11 in 10.0 mi SW 9.2 mph - N/A   Clear
6:55 PM 46.4 °F 41.9 °F 21.2 °F 37% 30.10 in 10.0 mi SW 9.2 mph - N/A   Clear
7:15 PM 46.4 °F 43.5 °F 21.2 °F 37% 30.10 in 10.0 mi SSW 5.8 mph - N/A   Clear
7:35 PM 46.4 °F 43.5 °F 21.2 °F 37% 30.10 in 10.0 mi SSW 5.8 mph - N/A   Clear
8:15 PM 44.6 °F 40.7 °F 21.2 °F 39% 30.10 in 10.0 mi SSW 6.9 mph - N/A   Clear
8:35 PM 44.6 °F 42.2 °F 21.2 °F 39% 30.10 in 10.0 mi SSW 4.6 mph - N/A   Clear
8:55 PM 42.8 °F 38.0 °F 21.2 °F 42% 30.10 in 10.0 mi SSW 8.1 mph - N/A   Clear
9:15 PM 42.8 °F 37.5 °F 19.4 °F 39% 30.10 in 10.0 mi SW 9.2 mph - N/A   Clear
9:35 PM 42.8 °F 37.5 °F 19.4 °F 39% 30.10 in 10.0 mi SSW 9.2 mph - N/A   Clear
9:55 PM 42.8 °F 38.0 °F 19.4 °F 39% 30.10 in 10.0 mi SSW 8.1 mph - N/A   Clear
10:15 PM 41.0 °F 36.4 °F 19.4 °F 42% 30.09 in 10.0 mi SSW 6.9 mph - N/A   Clear
10:35 PM 41.0 °F 35.8 °F 21.2 °F 45% 30.09 in 10.0 mi SW 8.1 mph - N/A   Clear
10:55 PM 39.2 °F 35.0 °F 21.2 °F 49% 30.08 in 10.0 mi WSW 5.8 mph - N/A   Clear
11:15 PM 39.2 °F 34.2 °F 21.2 °F 49% 30.08 in 10.0 mi SW 6.9 mph - N/A   Clear
11:35 PM 39.2 °F 33.6 °F 21.2 °F 49% 30.07 in 10.0 mi SW 8.1 mph - N/A   Clear